Location: *
(48.5333°N, 13.9000°E)
Time: 12:23:26
(UTC+00:00)

Daily predictions for brighter satellites

Satellite Brightness Start Highest point End
(mag) Time Altitude Azimuth Time Altitude Azimuth Time Altitude Azimuth
CZ-4B DEB 4.2 15:36:48 10° SSE 15:42:14 68° ENE 15:47:40 10° N
Cosmos 2360 Rocket 4.3 15:40:11 10° WNW 15:43:44 17° NW 15:47:17 10° N
Cosmos 2333 Rocket 3.8 15:39:26 10° WSW 15:44:21 29° NW 15:49:16 10° NNE
USA 281 4.4 15:39:50 10° E 15:44:29 21° NE 15:49:07 10° N
Cosmos 2219 Rocket 3.7 15:41:43 10° WSW 15:46:38 30° NW 15:51:34 10° NNE
Cosmos 2285 Rocket 4.1 15:41:20 10° NNW 15:47:39 57° ENE 15:53:53 10° SE
TELKOM 3 3.3 15:46:47 10° W 15:49:45 67° N 15:52:16 10° ENE
COSMOS 2428 4.2 15:46:24 10° WSW 15:51:30 32° NW 15:56:38 10° NNE
USA 267 3.8 15:47:51 10° ENE 15:53:57 43° N 16:00:04 10° WNW
X-37B 2.6 15:51:36 10° SSW 15:53:58 19° SSE 15:56:21 10° ESE
PAYLOAD B 4.2 15:49:40 10° SSE 15:55:12 73° ENE 16:00:46 10° NNW
H-2A R/B 3.8 15:56:19 10° ENE 15:57:43 11° NE 15:59:06 10° NE
Cosmos 1805 Rocket 3.9 15:54:09 10° NNW 15:58:36 73° W 16:03:00 10° S
Cosmos 1356 3.5 15:56:44 10° NNW 16:00:10 84° WSW 16:03:36 10° S
Meteor 1-4 Rocket 3.9 15:57:38 10° SE 16:00:19 20° E 16:02:58 10° NE
Cosmos 44 Rocket 4.5 15:56:59 10° NNW 16:01:20 26° NNE 16:05:42 10° E
Meteor 1-20 Rocket 4.4 15:56:14 10° N 16:02:03 59° ENE 16:07:46 10° SSE
BREEZE-M DEB (TANK) 4.3 15:58:50 10° W 16:02:57 86° N 16:18:06 10° E
Cosmos 1328 Rocket 4.2 15:59:34 10° SSE 16:03:26 33° E 16:07:20 10° NNE
Cosmos 2181 Rocket 4.3 15:57:31 10° SSE 16:03:36 48° E 16:09:39 10° NNE
Cosmos 1939 Rocket 4.1 16:01:23 10° ESE 16:04:16 20° ENE 16:07:12 10° NNE
Cosmos 1666 Rocket 3.5 16:01:34 10° N 16:05:59 67° ENE 16:10:25 10° SSE
Cosmos 389 Rocket 2.4 16:02:55 10° SSW 16:06:20 84° W 16:09:47 10° N
Cosmos 2237 Rocket 2.9 16:01:03 10° SW 16:06:33 52° NW 16:12:05 10° NNE
CZ-4 R/B 3.2 16:05:25 11° ENE 16:06:40 12° ENE 16:08:22 10° NNE
Cosmos 44 4.0 16:02:24 10° NW 16:07:40 67° WSW 16:13:02 10° SSE
NOAA 11 4.5 16:03:27 10° SE 16:08:34 45° ENE 16:13:45 10° N
PSLV R/B 4.4 16:05:16 10° S 16:09:20 65° WSW 16:13:23 10° NNW
Cosmos 1602 4.4 16:05:50 10° N 16:09:25 33° ENE 16:12:58 10° SE
CZ-4B R/B 3.1 16:04:25 10° SSE 16:09:42 68° ENE 16:14:58 10° N
H-2A R/B 2.6 16:08:20 10° SSE 16:12:34 80° WSW 16:16:39 10° NNW
Cosmos 1943 4.5 16:11:02 10° SE 16:15:05 20° E 16:18:07 14° ENE
Cosmos 2369 Rocket 2.4 16:09:39 10° NNW 16:15:11 48° NE 16:20:38 10° SE
ADEOS Rocket 3.8 16:08:54 10° NNE 16:16:41 81° WNW 16:24:23 10° SSW
Cosmos 1943 Rocket 2.1 16:11:15 10° NNW 16:16:50 74° ENE 16:22:25 10° SE
NOAA 12 4.1 16:14:01 10° SSE 16:19:20 77° ENE 16:24:40 10° NNW
CENTAUR R/B 4.2 16:18:11 10° ESE 16:19:48 11° E 16:20:31 11° E
H-2A R/B 2.0 16:16:51 10° NNE 16:21:05 74° ESE 16:25:23 10° S
CZ-2D R/B 4.5 16:18:45 10° ESE 16:21:40 21° ENE 16:24:38 10° NNE
Okean O Rocket 1.5 16:21:46 10° SSE 16:26:08 80° ENE 16:30:33 10° NNW
Radarsat 4.5 16:21:54 10° SSE 16:27:06 80° ENE 16:32:20 10° NNW
Cosmos 1782 3.3 16:23:31 10° SSE 16:27:13 39° E 16:30:58 10° NNE
Okean-O 3.8 16:24:33 10° ESE 16:27:55 22° ENE 16:31:17 10° NNE
Cosmos 1633 Rocket 3.1 16:25:50 10° N 16:30:14 85° W 16:34:35 10° S
ISS -3.3 16:27:57 10° WNW 16:31:15 47° N 16:32:58 24° ENE
Cosmos 1933 3.4 16:28:49 10° S 16:32:53 86° WNW 16:36:59 10° N
Cosmos 2218 Rocket 3.9 16:30:29 10° N 16:36:40 84° E 16:42:50 10° S
SKYMED 2 4.4 16:34:31 17° NE 16:37:06 30° E 16:40:56 10° SSE
Cosmos 2366 rocket 3.9 16:31:25 10° N 16:37:38 82° E 16:43:47 10° S
ERS-2 2.7 16:36:10 20° NE 16:38:10 35° E 16:41:33 10° SSE
Meteor 1-25 Rocket 4.4 16:32:50 10° NNW 16:38:29 79° W 16:44:12 10° S
Cosmos 1867 4.3 16:34:44 10° WSW 16:40:02 51° NW 16:44:55 12° NNE
Envisat 4.4 16:37:42 10° SSW 16:42:30 42° W 16:47:20 10° NNW
Cosmos 489 Rocket 4.5 16:37:33 10° S 16:43:39 63° ESE 16:49:47 10° NNE
Lacrosse 5 rocket 1.6 16:45:01 10° WSW 16:48:34 49° NNW 16:50:15 26° NNE
Cosmos 371 Rocket 4.3 16:44:55 10° N 16:48:57 25° NE 16:49:17 25° ENE
Cosmos 773 Rocket 4.1 16:44:08 10° SSW 16:49:24 83° WNW 16:54:45 10° NNE
SL-23 DEB 4.4 16:46:17 10° SW 16:49:53 55° SE 16:52:38 26° ENE
NOSS 3-2 (A) 4.2 16:47:07 10° S 16:51:59 30° ESE 16:54:01 25° E
FengYun 1-2 T 4.4 16:51:04 10° S 16:56:35 76° WSW 17:02:07 10° NNW
Feng Yun 1-1 Rocket 4.2 16:50:57 10° SSE 16:56:40 77° ENE 17:02:16 10° NNW
CZ-4B R/B 1.0 16:56:26 32° NNE 16:57:43 76° ESE 17:00:52 10° S
SL-16 R/B 2.8 16:54:08 10° SW 16:59:40 54° WNW 17:05:05 11° NNE
USA 215 3.9 16:59:21 25° E 17:02:16 36° SE 17:08:10 10° SSW
BREEZE-M DEB (TANK) 2.0 17:01:34 10° WSW 17:03:26 54° SSW 17:03:26 54° SSW
Cosmos 1500 3.1 17:02:02 10° N 17:05:50 62° E 17:09:38 10° SSE
MINOTAUR IV R/B 4.5 17:02:44 10° SSW 17:07:16 84° ESE 17:09:43 27° NNE
YAOGAN 1 2.9 17:09:18 41° ENE 17:09:18 41° ENE 17:13:23 10° N
Cosmos 1656 Rocket 3.6 17:05:07 10° NNW 17:10:47 70° ENE 17:16:19 10° SE
USA 238 DEB 4.1 17:05:04 10° S 17:11:04 39° ESE 17:13:06 32° E
USA 238 4.1 17:05:11 10° S 17:11:10 39° ESE 17:13:11 32° E
SL-24 DEB 4.1 17:06:46 10° N 17:11:32 72° E 17:16:12 10° S
Cosmos 1470 Rocket 4.3 17:08:28 10° NNW 17:12:42 53° W 17:16:54 10° S
Cosmos 1151 Rocket 4.2 17:09:03 10° SSW 17:13:07 42° WNW 17:17:12 10° N
MOS 1 Rocket 4.0 17:13:25 35° ENE 17:14:44 41° E 17:19:46 10° SSE
Cosmos 2263 4.2 17:13:58 10° NNW 17:19:36 82° WSW 17:25:12 10° SSE
Cosmos 158 Rocket 4.0 17:15:44 10° S 17:20:30 48° ESE 17:20:55 47° E
Cosmos 1515 Rocket 3.8 17:16:40 10° SSW 17:21:03 69° WNW 17:25:08 12° N
CZ-2C R/B 2.8 17:16:25 10° SSE 17:21:20 66° ENE 17:26:06 10° N
Cosmos 1934 Rocket 4.2 17:15:23 10° N 17:21:33 48° ENE 17:27:37 10° SSE
SWAS 4.3 17:19:07 10° SSW 17:23:23 81° ESE 17:24:10 58° NE
Cosmos 923 Rocket 4.0 17:18:48 10° S 17:23:51 55° ESE 17:24:50 47° ENE
Cosmos 1238 Rocket 2.9 17:20:55 10° N 17:24:52 68° E 17:29:40 10° SSE
COSMO-SKYMED 1 2.5 17:23:06 29° NNE 17:25:20 89° ESE 17:29:41 10° SSW
USA 281 3.1 17:21:29 10° SE 17:28:00 71° ENE 17:34:34 10° NNW
CSL-04 Debris 4.3 17:27:30 41° ESE 17:28:51 51° ENE 17:34:10 10° N
SAR-Lupe-4 3.6 17:29:13 74° SSW 17:29:13 74° SSW 17:32:31 10° SSW
X-37B 1.9 17:27:08 10° WSW 17:29:28 35° SSW 17:29:28 35° SSW
Nadezhda 3 Rocket 3.9 17:24:02 10° S 17:30:22 76° E 17:36:45 10° NNE
Helios 1A Rocket 3.0 17:33:25 62° N 17:33:25 62° N 17:36:52 10° NNW
Meteor 2-6 Rocket 4.0 17:27:54 10° S 17:33:28 83° E 17:37:14 21° NNE
Cosmos 2228 Rocket 3.0 17:29:04 10° S 17:33:36 81° E 17:34:29 57° NNE
Meteor 1-4 Rocket 4.4 17:31:58 10° SW 17:35:09 29° WNW 17:37:26 16° NNW
H-2A R/B 2.0 17:35:18 52° ESE 17:36:11 61° ENE 17:41:13 10° N
USA 267 3.2 17:34:11 42° E 17:36:26 67° NNE 17:42:56 10° NW
Cosmos 1812 3.1 17:33:35 10° S 17:36:35 54° S 17:36:35 54° S
Cosmos 1821 Rocket 4.0 17:31:15 10° N 17:37:32 83° W 17:43:51 10° S
Cosmos 1939 Rocket 4.1 17:35:16 10° S 17:38:57 40° W 17:42:42 10° NNW
Meteor 1-11 Rocket 3.6 17:34:55 10° N 17:40:43 73° ENE 17:46:36 10° SSE
CZ-4 R/B 1.4 17:41:26 71° NW 17:41:26 71° NW 17:45:09 10° NNW
PSLV R/B 4.1 17:42:19 64° SSW 17:42:19 64° SSW 17:45:45 10° SSW
NOSS 3-3 (A) 4.5 17:34:35 10° NW 17:42:03 90° ENE 17:47:58 21° SE
NOSS 3-3 (C) 4.4 17:34:39 10° NW 17:42:08 89° NE 17:47:58 22° SE
Cosmos 44 Rocket 3.5 17:38:14 10° NW 17:43:26 79° SW 17:45:09 43° SSE
CSL-04 Rocket 3.6 17:44:05 59° NE 17:44:05 59° NE 17:48:52 10° N
BREEZE-M DEB (TANK) 4.2 17:41:36 10° SSW 17:42:53 17° SSW 17:42:53 17° SSW
SL-24 R/B 4.4 17:49:33 53° W 17:49:33 53° W 17:53:01 10° SSW
Lacrosse 4 Rocket 3.8 17:46:31 10° S 17:46:59 13° S 17:46:59 13° S
Cosmos 1680 Rocket 3.5 17:45:28 10° SSW 17:50:19 67° SE 17:50:19 67° SE
Cosmos 1603 3.9 17:49:33 10° SW 17:55:09 68° WNW 17:56:56 43° N
Cosmos 1943 3.3 17:52:51 10° SW 17:58:31 73° WNW 17:59:58 50° N
Cosmos 2369 Rocket 3.9 17:54:02 10° NW 17:59:00 32° WSW 18:03:55 10° SSW
Okean-O 3.5 17:59:48 10° S 18:04:05 49° W 18:08:25 10° NNW
Cosmos 1371 Rocket 4.1 17:59:13 10° NNW 18:03:40 66° NNW 18:03:40 66° NNW
ARGOS 3.8 18:08:32 43° N 18:08:32 43° N 18:12:05 10° NNW
ISS -1.0 18:04:52 10° WNW 18:05:55 19° WNW 18:05:55 19° WNW
CENTAUR R/B 2.7 18:02:53 10° SSW 18:07:44 55° SSE 18:07:44 55° SSE
Cosmos 2056 Rocket 3.9 18:05:25 10° NNW 18:09:29 54° NNW 18:09:29 54° NNW
NOSS 3-2 (C) 3.9 18:11:12 10° SSW 18:15:09 47° S 18:15:09 47° S
Meteor 1-27 Rocket 4.5 18:16:39 10° SSW 18:20:11 42° SSW 18:20:11 42° SSW
Lacrosse 5 rocket 4.1 18:25:26 10° WNW 18:25:53 12° NW 18:25:53 12° NW
NOSS 3-2 (A) 3.9 18:36:34 10° WSW 18:41:27 56° W 18:41:27 56° W
USA 215 3.4 18:46:42 67° WSW 18:46:42 67° WSW 18:52:15 10° WSW
USA 238 DEB 4.3 18:55:15 10° WSW 19:00:35 51° W 19:00:35 51° W
USA 238 4.3 18:55:20 10° WSW 19:00:39 51° W 19:00:39 51° W
H-2A R/B 4.3 19:15:55 21° W 19:15:59 21° W 19:19:50 10° NW
USA 267 4.3 19:21:32 40° W 19:21:32 40° W 19:25:59 10° WNW
